Location: Albany
(35.0000°S, 118.0000°E)
Time: 13:56:52
(UTC-04:00)

SJ-6B - Visible Passes

Search period start: 26 July 2016 00:00
Search period end: 05 August 2016 00:00
Orbit: 512 x 586 km, 97.8° (Epoch: 25 July)

Date Brightness Start Highest point End Pass type
(mag) Time Alt. Az. Time Alt. Az. Time Alt. Az.
26 Jul 4.5 06:45:48 20° NE 06:45:48 20° NE 06:47:45 10° NNE visible
26 Jul 5.9 08:21:29 13° WNW 08:21:29 13° WNW 08:22:05 10° WNW visible
27 Jul 4.6 06:41:07 18° ENE 06:41:07 18° ENE 06:42:57 10° NNE visible
27 Jul 5.8 08:16:49 15° WNW 08:16:49 15° WNW 08:17:44 10° NW visible
28 Jul 4.6 06:36:27 17° ENE 06:36:27 17° ENE 06:38:07 10° NE visible
28 Jul 5.6 08:12:08 17° WNW 08:12:08 17° WNW 08:13:20 10° NW visible
29 Jul 4.7 06:31:46 15° ENE 06:31:46 15° ENE 06:33:14 10° NE visible
29 Jul 5.4 08:07:28 19° WNW 08:07:28 19° WNW 08:08:55 10° NW visible
30 Jul 4.8 06:27:05 13° ENE 06:27:05 13° ENE 06:28:16 10° NE visible
30 Jul 5.2 08:02:47 22° NW 08:02:47 22° NW 08:04:28 10° NW visible
31 Jul 4.9 06:22:25 12° ENE 06:22:25 12° ENE 06:23:14 10° ENE visible
31 Jul 5.0 07:58:06 24° NW 07:58:06 24° NW 08:00:01 10° NW visible
31 Jul 3.3 18:33:08 10° NNE 18:37:01 68° ESE 18:41:04 10° S visible
01 Aug 5.0 06:17:44 10° ENE 06:17:44 10° ENE 06:18:00 10° ENE visible
01 Aug 4.8 07:53:25 27° NW 07:53:25 27° NW 07:55:31 10° NNW visible
01 Aug 3.5 18:28:35 10° NNE 18:32:26 59° ESE 18:36:28 10° S visible
02 Aug 4.5 07:48:44 31° NW 07:48:44 31° NW 07:51:01 10° NNW visible
02 Aug 3.8 18:24:03 10° NNE 18:27:52 51° ESE 18:31:51 10° S visible
03 Aug 4.3 07:44:03 34° NW 07:44:03 34° NW 07:46:29 10° NNW visible
03 Aug 4.1 18:19:31 10° NE 18:23:18 44° ESE 18:27:12 10° S visible
04 Aug 4.1 07:39:22 37° NNW 07:39:22 37° NNW 07:41:56 10° NNW visible
04 Aug 4.4 18:15:01 10° NE 18:18:44 39° ESE 18:22:34 10° S visible
